Date,TemperatureHighF,TemperatureAvgF,TemperatureLowF,DewpointHighF,DewpointAvgF,DewpointLowF,HumidityHigh,HumidityAvg,HumidityLow,PressureMaxIn,PressureMinIn,WindSpeedMaxMPH,WindSpeedAvgMPH,GustSpeedMaxMPH,PrecipitationSumIn
2013-2-1,60,47,31,40,27,16,56,46,32,30.46,30.19,17,6,24,0.00
2013-2-2,73,59,50,47,38,29,81,49,25,30.36,30.16,13,6,20,0.01
2013-2-3,73,58,42,43,31,24,80,42,17,30.37,30.00,14,4,17,0.00
2013-2-4,72,62,56,58,47,27,85,60,28,30.01,29.80,16,8,115,0.18
2013-2-5,60,59,57,60,58,57,99,99,97,30.04,30.02,8,4,12,0.17
2013-2-6,74,64,56,65,59,52,99,86,46,30.04,29.86,17,8,23,0.00
2013-2-7,80,65,54,60,55,39,99,75,26,30.15,29.79,22,10,36,0.00
2013-2-8,64,54,43,46,34,20,84,53,19,30.30,30.14,14,6,21,0.00
2013-2-9,59,52,48,59,48,37,99,88,56,30.17,29.75,21,10,27,0.00
2013-2-10,69,61,52,64,38,22,99,52,17,30.05,29.65,26,7,33,0.39
2013-2-11,57,52,48,41,33,26,77,49,35,30.20,30.03,16,7,24,0.00
2013-2-12,50,47,41,49,46,41,99,95,77,30.08,29.88,17,6,22,0.32
2013-2-13,58,47,39,42,38,33,98,73,41,30.20,30.04,17,5,22,0.00
2013-2-14,69,56,42,42,37,28,90,54,23,30.14,30.01,8,3,11,0.00
2013-2-15,54,48,38,40,28,14,73,48,24,30.44,30.13,20,8,27,0.00
2013-2-16,57,45,32,32,26,21,72,50,27,30.47,30.21,11,4,14,0.00
2013-2-17,70,57,43,48,33,23,67,44,17,30.21,29.91,22,9,31,0.00
2013-2-18,78,62,51,59,46,32,85,58,26,30.16,29.75,24,11,33,0.00
2013-2-19,61,53,42,33,25,18,57,37,22,30.37,30.15,15,6,20,0.00
2013-2-20,53,45,41,42,38,30,92,79,42,30.24,29.82,18,10,24,0.10
2013-2-21,68,52,42,51,40,25,99,69,20,29.98,29.62,22,9,36,0.06
2013-2-22,48,40,32,39,28,20,89,61,46,30.22,29.96,14,6,21,0.00
2013-2-23,54,44,32,32,27,24,73,54,35,30.15,29.96,11,4,14,0.00
2013-2-24,69,56,41,45,38,31,76,54,28,29.97,29.61,21,9,27,0.00
2013-2-25,61,52,40,52,41,28,86,68,37,29.70,29.47,26,11,40,0.06
2013-2-26,58,48,40,36,34,30,80,60,36,29.94,29.70,27,11,42,0.01
2013-2-27,56,47,37,34,28,16,86,50,22,30.28,29.91,21,9,28,0.00
2013-2-28,58,46,35,31,27,18,79,50,23,30.34,30.19,21,8,27,0.00